Location: Coupvray
(48.8929°N, 2.7967°E)
Time: 08:48:10
(UTC+00:00)

Cosmos 1900 - Pass Details

Date: 14 July 2020
Orbit: 681 x 740 km, 66.1° (Epoch: 14 August)

Event Time Altitude Azimuth Distance (km) Brightness Sun altitude
Exits shadow 02:29:33 16° 206° (SSW) 1,797 5.8 -11.5°
Maximum altitude 02:33:30 74° 123° (ESE) 735 4.4 -11.1°
Drops below altitude 10° 02:38:29 10° 40° (NE) 2,197 8.5 -10.6°
Sets 02:40:52 0° 38° (NE) 3,130 10.0 -10.4°
